Waukesha, WI

10:02 PM CDT on June 25, 2017 (GMT -0500)
Waukesha County

Weather History for KUES - May, 2014

Change the Weather History Date:

Saturday, May 17, 2014

  Actual Average Record
Temperature  
Mean Temperature 45 °F -  
Max Temperature 57 °F 71 °F 90 °F (1962)
Min Temperature 33 °F 46 °F 30 °F (1983)
Degree Days  
Heating Degree Days 20    
Moisture  
Dew Point 32 °F    
Average Humidity 64    
Maximum Humidity 93    
Minimum Humidity 33    
Precipitation  
Precipitation 0.00 in - - ()
Sea Level Pressure  
Sea Level Pressure 30.08 in    
Wind  
Wind Speed 5 mph (SW)    
Max Wind Speed 14 mph    
Max Gust Speed 21 mph    
Visibility 10 miles    
Events      
Averages and records for this station are not official NWS values.
T = Trace of Precipitation, MM = Missing Value Source: NWS Daily Summary

Daily Weather History Graph

Daily Weather History Graph

Search for Another Location

Airport or City:

Trip Planner

Search our weather history database for the weather conditions in past years. The results will help you decide how hot, cold, wet, or windy it might be!

Date:

Astronomy

May. 17, 2014 Rise Set
Actual Time 5:27 AM CDT 8:11 PM CDT
Civil Twilight 4:54 AM CDT 8:44 PM CDT
Nautical Twilight 4:13 AM CDT 9:26 PM CDT
Astronomical Twilight 3:25 AM CDT 10:14 PM CDT
Moon 11:11 PM CDT (5/17) 8:10 AM CDT (5/17)
Length of Visible Light 15h 50m
Length of Day
14h 44m
Waning Gibbous, 89% of the Moon is Illuminated
May 17
Waning Gibbous
May 21
Last Quarter
May 28
New
Jun 5
First Quarter
Jun 12
Full

Hourly Weather History & Observations

Time (CDT) Temp. Windchill Dew Point Humidity Pressure Visibility Wind Dir Wind Speed Gust Speed Precip Events Conditions
12:15 AM 41.0 °F 38.0 °F 35.6 °F 81% 30.06 in 10.0 mi SSW 4.6 mph - N/A   Overcast
12:35 AM 41.0 °F 39.0 °F 35.6 °F 81% 30.06 in 10.0 mi SW 3.5 mph - N/A   Overcast
12:55 AM 39.2 °F 35.9 °F 35.6 °F 87% 30.06 in 10.0 mi SSW 4.6 mph - N/A   Overcast
1:15 AM 39.2 °F - 35.6 °F 87% 30.06 in 10.0 mi Calm Calm - N/A   Overcast
1:35 AM 39.2 °F - 35.6 °F 87% 30.06 in 10.0 mi Calm Calm - N/A   Overcast
1:55 AM 39.2 °F - 35.6 °F 87% 30.05 in 10.0 mi Calm Calm - N/A   Overcast
2:15 AM 37.4 °F 34.9 °F 35.6 °F 93% 30.05 in 10.0 mi SW 3.5 mph - N/A   Overcast
2:35 AM 37.4 °F 34.9 °F 33.8 °F 87% 30.05 in 10.0 mi West 3.5 mph - N/A   Overcast
2:55 AM 37.4 °F 34.9 °F 32.0 °F 81% 30.05 in 10.0 mi WSW 3.5 mph - N/A   Overcast
3:15 AM 37.4 °F 33.8 °F 32.0 °F 81% 30.05 in 10.0 mi WSW 4.6 mph - N/A   Overcast
3:35 AM 37.4 °F 34.9 °F 32.0 °F 81% 30.05 in 10.0 mi WSW 3.5 mph - N/A   Overcast
3:55 AM 37.4 °F 33.8 °F 32.0 °F 81% 30.05 in 10.0 mi WSW 4.6 mph - N/A   Overcast
4:15 AM 37.4 °F 34.9 °F 32.0 °F 81% 30.05 in 10.0 mi SW 3.5 mph - N/A   Overcast
4:35 AM 35.6 °F 31.7 °F 32.0 °F 87% 30.05 in 10.0 mi WSW 4.6 mph - N/A   Overcast
4:55 AM 37.4 °F - 32.0 °F 81% 30.06 in 10.0 mi Calm Calm - N/A   Mostly Cloudy
5:15 AM 35.6 °F - 30.2 °F 81% 30.06 in 10.0 mi Calm Calm - N/A   Scattered Clouds
5:35 AM 33.8 °F - 30.2 °F 87% 30.07 in 10.0 mi Calm Calm - N/A   Mostly Cloudy
5:45 AM 35.6 °F - 30.2 °F 81% 30.07 in 10.0 mi Calm Calm - N/A   Scattered Clouds
6:45 AM 37.4 °F - 33.8 °F 87% 30.08 in 10.0 mi Calm Calm - N/A   Scattered Clouds
7:45 AM 44.6 °F - 32.0 °F 61% 30.09 in 10.0 mi Calm Calm - N/A   Scattered Clouds
8:45 AM 48.2 °F - 30.2 °F 50% 30.09 in 10.0 mi West 6.9 mph - N/A   Scattered Clouds
9:45 AM 51.8 °F - 30.2 °F 44% 30.09 in 10.0 mi WNW 11.5 mph - N/A   Scattered Clouds
10:45 AM 51.8 °F - 28.4 °F 41% 30.09 in 10.0 mi WSW 8.1 mph - N/A   Scattered Clouds
12:45 PM 55.4 °F - 28.4 °F 36% 30.09 in 10.0 mi West 9.2 mph - N/A   Mostly Cloudy
1:45 PM 55.4 °F - 28.4 °F 36% 30.09 in 10.0 mi WSW 12.7 mph 20.7 mph N/A   Mostly Cloudy
3:45 PM 57.2 °F - 28.4 °F 33% 30.08 in 10.0 mi WSW 13.8 mph 20.7 mph N/A   Mostly Cloudy
4:45 PM 57.2 °F - 28.4 °F 33% 30.07 in 10.0 mi SW 11.5 mph - N/A   Mostly Cloudy
5:45 PM 55.4 °F - 26.6 °F 33% 30.08 in 10.0 mi WSW 11.5 mph 16.1 mph N/A   Scattered Clouds
6:45 PM 55.4 °F - 28.4 °F 36% 30.08 in 10.0 mi SW 9.2 mph - N/A   Scattered Clouds
7:45 PM 55.4 °F - 28.4 °F 36% 30.09 in 10.0 mi SW 8.1 mph - N/A   Scattered Clouds
8:45 PM 51.8 °F - 28.4 °F 41% 30.10 in 10.0 mi SSW 6.9 mph - N/A   Scattered Clouds
9:15 PM 50.0 °F - 30.2 °F 47% 30.11 in 10.0 mi SSW 5.8 mph - N/A   Clear
9:35 PM 50.0 °F - 30.2 °F 47% 30.12 in 10.0 mi SSW 5.8 mph - N/A   Clear
9:55 PM 48.2 °F - 32.0 °F 54% 30.12 in 10.0 mi SSW 8.1 mph - N/A   Clear
10:15 PM 48.2 °F - 32.0 °F 54% 30.13 in 10.0 mi SSW 8.1 mph - N/A   Scattered Clouds
10:35 PM 46.4 °F 41.9 °F 32.0 °F 57% 30.13 in 10.0 mi SSW 9.2 mph - N/A   Scattered Clouds
11:15 PM 46.4 °F 41.9 °F 32.0 °F 57% 30.13 in 10.0 mi SSW 9.2 mph - N/A   Clear
11:35 PM 46.4 °F 41.9 °F 32.0 °F 57% 30.14 in 10.0 mi SW 9.2 mph - N/A   Scattered Clouds
11:55 PM 46.4 °F 41.9 °F 32.0 °F 57% 30.14 in 10.0 mi SSW 9.2 mph - N/A   Scattered Clouds